Weather History for Port Angeles, WA

Change the Weather History Date:

Friday, August 16, 2013

  Actual Average Record
Temperature  
Mean Temperature 63 °F -  
Max Temperature 73 °F 68 °F 88 °F (2012)
Min Temperature 53 °F 51 °F 44 °F (1986)
Degree Days  
Heating Degree Days 2    
Growing Degree Days 13 (Base 50)    
Moisture  
Dew Point 55 °F    
Average Humidity 82    
Maximum Humidity 97    
Minimum Humidity 59    
Precipitation  
Precipitation 0.00 in - - ()
Sea Level Pressure  
Sea Level Pressure 30.00 in    
Wind  
Wind Speed 4 mph (WNW)    
Max Wind Speed 9 mph    
Max Gust Speed -    
Visibility 8 miles    
Events Fog    
Averages and records for this station are not official NWS values.
T = Trace of Precipitation, MM = Missing Value Source: NWS Daily Summary

Daily Weather History Graph

Daily Weather History Graph

Search for Another Location

Airport:

Trip Planner

Search our weather history database for the weather conditions in past years. The results will help you decide how hot, cold, wet, or windy it might be!

Date:

Astronomy

Aug. 16, 2013 Rise Set
Actual Time 6:10 AM PDT 8:25 PM PDT
Civil Twilight 5:36 AM PDT 8:58 PM PDT
Nautical Twilight 4:53 AM PDT 9:41 PM PDT
Astronomical Twilight 4:05 AM PDT 10:29 PM PDT
Moon 4:58 PM PDT (8/16) 1:09 AM PDT (8/16)
Length of Visible Light 15h 22m
Length of Day
14h 14m
Waxing Gibbous, 76% of the Moon is Illuminated
Aug 16
Waxing Gibbous
Aug 20
Full
Aug 28
Last Quarter
Sep 5
New
Sep 12
First Quarter

Hourly Weather History & Observations

Time (PDT) Temp. Dew Point Humidity Pressure Visibility Wind Dir Wind Speed Gust Speed Precip Events Conditions
12:53 AM 54.0 °F 52.0 °F 93% 29.99 in 10.0 mi SSE 5.8 mph - N/A   Clear
1:53 AM 55.0 °F 54.0 °F 96% 29.99 in 10.0 mi Calm Calm - N/A   Mostly Cloudy
2:26 AM 55.0 °F 54.0 °F 96% 29.99 in 10.0 mi SSE 4.6 mph - N/A   Scattered Clouds
2:53 AM 55.9 °F 54.0 °F 93% 29.99 in 10.0 mi SW 5.8 mph - N/A   Clear
3:53 AM 53.1 °F 52.0 °F 96% 29.99 in 10.0 mi SW 3.5 mph - N/A   Clear
4:53 AM 55.0 °F 53.1 °F 93% 29.98 in 10.0 mi Variable 3.5 mph - N/A   Partly Cloudy
5:53 AM 55.9 °F 53.1 °F 90% 29.99 in 10.0 mi SW 5.8 mph - N/A   Clear
6:53 AM 55.0 °F 53.1 °F 93% 29.99 in 10.0 mi SW 4.6 mph - N/A   Clear
7:53 AM 62.1 °F 57.9 °F 86% 29.99 in 10.0 mi Calm Calm - N/A   Clear
8:53 AM 63.0 °F 57.9 °F 84% 30.00 in 10.0 mi Calm Calm - N/A   Clear
9:50 AM 59.0 °F 55.4 °F 88% 30.01 in 3.0 mi Variable 4.6 mph - N/A   Scattered Clouds
9:53 AM 59.0 °F 55.9 °F 90% 30.01 in 2.5 mi NNE 6.9 mph - N/A   Scattered Clouds
9:56 AM 57.9 °F 55.0 °F 90% 30.01 in 1.5 mi North 8.1 mph - N/A   Mostly Cloudy
9:59 AM 57.0 °F 54.0 °F 89% 30.02 in 0.8 mi North 6.9 mph - N/A   Mist
10:10 AM 55.9 °F 54.0 °F 93% 30.02 in 0.2 mi North 3.5 mph - N/A Fog Fog
10:17 AM 55.9 °F 55.0 °F 97% 30.02 in 0.5 mi Calm Calm - N/A Fog Fog
10:35 AM 57.9 °F 55.9 °F 93% 30.02 in 0.2 mi Calm Calm - N/A Fog Fog
10:43 AM 57.9 °F 55.9 °F 93% 30.02 in 1.0 mi Calm Calm - N/A   Overcast
10:45 AM 59.0 °F 55.9 °F 90% 30.02 in 3.0 mi Calm Calm - N/A   Overcast
10:53 AM 61.0 °F 55.9 °F 83% 30.02 in 10.0 mi Calm Calm - N/A   Overcast
11:03 AM 62.1 °F 55.9 °F 80% 30.02 in 10.0 mi Variable 4.6 mph - N/A   Mostly Cloudy
11:53 AM 66.9 °F 57.0 °F 70% 30.01 in 10.0 mi NNE 5.8 mph - N/A   Overcast
12:53 PM 64.9 °F 57.9 °F 78% 30.01 in 10.0 mi NNE 4.6 mph - N/A   Partly Cloudy
1:53 PM 70.0 °F 59.0 °F 68% 30.01 in 10.0 mi Variable 4.6 mph - N/A   Clear
2:53 PM 68.0 °F 57.9 °F 70% 30.01 in 10.0 mi NNW 8.1 mph - N/A   Clear
3:53 PM 73.0 °F 57.9 °F 59% 30.00 in 10.0 mi Variable 5.8 mph - N/A   Clear
4:53 PM 70.0 °F 57.0 °F 63% 30.00 in 10.0 mi NW 9.2 mph - N/A   Clear
5:53 PM 70.0 °F 55.0 °F 59% 30.00 in 10.0 mi WNW 9.2 mph - N/A   Clear
6:53 PM 69.1 °F 55.9 °F 63% 29.99 in 10.0 mi West 9.2 mph - N/A   Scattered Clouds
7:53 PM 66.0 °F 55.0 °F 68% 30.00 in 10.0 mi West 8.1 mph - N/A   Clear
8:53 PM 66.0 °F 55.0 °F 68% 30.00 in 10.0 mi WSW 8.1 mph - N/A   Mostly Cloudy
9:53 PM 64.9 °F 55.0 °F 70% 30.01 in 10.0 mi West 6.9 mph - N/A   Overcast
10:53 PM 64.9 °F 55.0 °F 70% 30.01 in 10.0 mi West 6.9 mph - N/A   Overcast
11:53 PM 64.9 °F 55.0 °F 70% 30.00 in 10.0 mi West 6.9 mph - N/A   Overcast